Time,TemperatureF,DewpointF,PressureIn,WindDirection,WindDirectionDegrees,WindSpeedMPH,WindSpeedGustMPH,Humidity,HourlyPrecipIn,Conditions,Clouds,dailyrainin,SoftwareType,DateUTC
2013-06-27 00:01:00,72.0,68.0,-100.00,SE,145,6.0,10.0,87,0.00,,,-99.99,,2013-06-27 04:01:00,
2013-06-27 00:11:00,72.0,68.0,-100.00,SSE,155,6.0,10.0,86,0.00,,,-99.99,,2013-06-27 04:11:00,
2013-06-27 00:32:00,72.0,68.0,-100.00,SSE,160,7.0,11.0,87,0.00,,,-99.99,,2013-06-27 04:32:00,
2013-06-27 00:42:00,71.0,68.0,-100.00,South,170,6.0,9.0,89,0.00,,,-99.99,,2013-06-27 04:42:00,
2013-06-27 01:02:00,71.0,68.0,-100.00,South,175,6.0,7.0,90,1.10,,,-99.99,,2013-06-27 05:02:00,
2013-06-27 01:12:00,71.0,68.0,-100.00,South,190,6.0,9.0,91,1.69,,,-99.99,,2013-06-27 05:12:00,
2013-06-27 01:53:00,71.0,69.0,-100.00,SSW,205,3.0,6.0,92,1.69,,,-99.99,,2013-06-27 05:53:00,
2013-06-27 02:01:00,71.0,69.0,-100.00,South,170,1.0,4.0,92,1.69,,,-99.99,,2013-06-27 06:01:00,
2013-06-27 02:12:00,72.0,69.0,-100.00,West,280,1.0,4.0,93,1.69,,,-99.99,,2013-06-27 06:12:00,
2013-06-27 02:43:00,72.0,70.0,-100.00,WNW,290,1.0,2.0,93,0.00,,,-99.99,,2013-06-27 06:43:00,
2013-06-27 03:02:00,72.0,69.0,-100.00,WNW,285,1.0,6.0,92,0.00,,,-99.99,,2013-06-27 07:02:00,
2013-06-27 03:12:00,72.0,69.0,-100.00,West,275,1.0,4.0,92,0.00,,,-99.99,,2013-06-27 07:12:00,
2013-06-27 03:33:00,72.0,70.0,-100.00,NW,305,1.0,4.0,93,0.00,,,-99.99,,2013-06-27 07:33:00,
2013-06-27 03:42:00,72.0,70.0,-100.00,SSE,165,1.0,3.0,92,0.00,,,-99.99,,2013-06-27 07:42:00,
2013-06-27 03:52:00,72.0,70.0,-100.00,West,270,1.0,4.0,93,0.00,,,-99.99,,2013-06-27 07:52:00,
2013-06-27 04:34:00,71.0,69.0,-100.00,South,170,1.0,6.0,93,0.00,,,-99.99,,2013-06-27 08:34:00,
2013-06-27 04:43:00,71.0,69.0,-100.00,SSE,165,3.0,4.0,94,0.00,,,-99.99,,2013-06-27 08:43:00,
2013-06-27 04:52:00,71.0,69.0,-100.00,South,170,4.0,6.0,94,0.00,,,-99.99,,2013-06-27 08:52:00,
2013-06-27 05:02:00,71.0,69.0,-100.00,SSE,160,4.0,6.0,95,0.00,,,-99.99,,2013-06-27 09:02:00,
2013-06-27 05:22:00,71.0,69.0,-100.00,South,180,2.0,6.0,96,0.00,,,-99.99,,2013-06-27 09:22:00,
2013-06-27 05:53:00,71.0,69.0,-100.00,SE,135,2.0,7.0,95,1.69,,,-99.99,,2013-06-27 09:53:00,
2013-06-27 06:44:00,70.0,69.0,-100.00,South,185,5.0,7.0,95,1.10,,,-99.99,,2013-06-27 10:44:00,
2013-06-27 07:12:00,71.0,69.0,-100.00,SW,225,2.0,6.0,94,0.00,,,-99.99,,2013-06-27 11:12:00,
2013-06-27 07:22:00,71.0,69.0,-100.00,West,275,2.0,5.0,94,0.00,,,-99.99,,2013-06-27 11:22:00,
2013-06-27 07:33:00,71.0,69.0,-100.00,SW,235,3.0,6.0,93,0.00,,,-99.99,,2013-06-27 11:33:00,
2013-06-27 07:43:00,71.0,69.0,-100.00,WSW,250,3.0,6.0,93,0.00,,,-99.99,,2013-06-27 11:43:00,
2013-06-27 08:42:00,73.0,69.0,-100.00,NW,305,6.0,9.0,89,0.00,,,-99.99,,2013-06-27 12:42:00,
2013-06-27 09:01:00,73.0,70.0,-100.00,WNW,300,6.0,9.0,89,0.00,,,-99.99,,2013-06-27 13:01:00,
2013-06-27 09:11:00,73.0,70.0,-100.00,NW,305,6.0,9.0,90,0.00,,,-99.99,,2013-06-27 13:11:00,
2013-06-27 10:22:00,74.0,68.0,-100.00,NW,305,9.0,12.0,80,0.00,,,-99.99,,2013-06-27 14:22:00,
2013-06-27 10:33:00,74.0,68.0,-100.00,NW,310,6.0,12.0,80,0.00,,,-99.99,,2013-06-27 14:33:00,
2013-06-27 10:52:00,76.0,68.0,-100.00,NW,305,6.0,12.0,75,0.00,,,-99.99,,2013-06-27 14:52:00,
2013-06-27 11:01:00,76.0,67.0,-100.00,North,10,2.0,7.0,74,0.00,,,-99.99,,2013-06-27 15:01:00,
2013-06-27 11:22:00,76.0,68.0,-100.00,NNE,25,4.0,7.0,75,0.00,,,-99.99,,2013-06-27 15:22:00,
2013-06-27 11:33:00,77.0,68.0,-100.00,North,10,2.0,7.0,74,0.00,,,-99.99,,2013-06-27 15:33:00,
2013-06-27 11:42:00,76.0,68.0,-100.00,NE,40,4.0,8.0,75,0.00,,,-99.99,,2013-06-27 15:42:00,
2013-06-27 12:02:00,76.0,68.0,-100.00,NNE,25,4.0,9.0,75,0.00,,,-99.99,,2013-06-27 16:02:00,
2013-06-27 12:43:00,77.0,69.0,-100.00,NNE,25,4.0,7.0,75,0.00,,,-99.99,,2013-06-27 16:43:00,
2013-06-27 13:02:00,76.0,69.0,-100.00,NE,55,7.0,9.0,77,0.00,,,-99.99,,2013-06-27 17:02:00,
2013-06-27 13:11:00,77.0,69.0,-100.00,ENE,70,4.0,9.0,75,0.00,,,-99.99,,2013-06-27 17:11:00,
2013-06-27 13:22:00,77.0,69.0,-100.00,NNE,25,6.0,9.0,75,0.00,,,-99.99,,2013-06-27 17:22:00,
2013-06-27 13:33:00,78.0,69.0,-100.00,NE,45,5.0,9.0,74,0.00,,,-99.99,,2013-06-27 17:33:00,
2013-06-27 13:43:00,78.0,69.0,-100.00,NE,55,4.0,9.0,73,0.00,,,-99.99,,2013-06-27 17:43:00,
2013-06-27 14:44:00,78.0,68.0,-100.00,NE,45,8.0,11.0,71,0.00,,,-99.99,,2013-06-27 18:44:00,
2013-06-27 15:11:00,79.0,69.0,-100.00,ENE,75,6.0,12.0,70,0.00,,,-99.99,,2013-06-27 19:11:00,
2013-06-27 16:02:00,81.0,69.0,-100.00,ESE,105,4.0,9.0,66,0.00,,,-99.99,,2013-06-27 20:02:00,
2013-06-27 17:14:00,81.0,69.0,-100.00,NNE,30,7.0,10.0,69,0.00,,,-99.99,,2013-06-27 21:14:00,
2013-06-27 17:47:00,81.0,69.0,-100.00,SE,140,6.0,9.0,68,0.00,,,-99.99,,2013-06-27 21:47:00,
2013-06-27 18:06:00,79.0,69.0,-100.00,SE,130,4.0,10.0,71,0.00,,,-99.99,,2013-06-27 22:06:00,
2013-06-27 19:15:00,73.0,69.0,-100.00,SE,130,4.0,7.0,89,0.00,,,-99.99,,2013-06-27 23:15:00,
2013-06-27 19:35:00,71.0,67.0,-100.00,East,85,9.0,17.0,87,0.00,,,-99.99,,2013-06-27 23:35:00,
2013-06-27 19:45:00,71.0,68.0,-100.00,ENE,60,10.0,16.0,89,0.00,,,-99.99,,2013-06-27 23:45:00,
2013-06-27 19:55:00,72.0,68.0,-100.00,NNE,25,7.0,17.0,88,0.00,,,-99.99,,2013-06-27 23:55:00,
2013-06-27 20:07:00,70.0,67.0,-100.00,NE,35,8.0,12.0,91,26.06,,,-99.99,,2013-06-28 00:07:00,
2013-06-27 20:28:00,70.0,67.0,-100.00,NNE,25,20.0,29.0,90,0.00,,,-99.99,,2013-06-28 00:28:00,
2013-06-27 20:35:00,68.0,66.0,-100.00,NNE,25,16.0,27.0,93,11.89,,,-99.99,,2013-06-28 00:35:00,
2013-06-27 20:45:00,68.0,66.0,-100.00,NNE,30,9.0,22.0,92,0.00,,,-99.99,,2013-06-28 00:45:00,
2013-06-27 20:54:00,69.0,67.0,-100.00,NE,55,11.0,17.0,94,0.00,,,-99.99,,2013-06-28 00:54:00,
2013-06-27 21:08:00,69.0,67.0,-100.00,East,80,3.0,13.0,93,0.00,,,-99.99,,2013-06-28 01:08:00,
2013-06-27 21:14:00,69.0,67.0,-100.00,East,85,4.0,6.0,92,0.00,,,-99.99,,2013-06-28 01:14:00,
2013-06-27 22:07:00,69.0,67.0,-100.00,SSE,155,2.0,6.0,93,0.00,,,-99.99,,2013-06-28 02:07:00,